weather.gov     
National Weather Service

Terminal Aerodrome Forecast
NWS Homepage
This page is being discontinued on March 12, 2014.
The same data is available at this site. Please update your bookmarks.
Thank you, and we apologize for the inconvenience.
Please send an email to SR-SRH.Webmaster@noaa.gov with any concerns.


Current Version
Previous Version:    01  02  03  04  05  06  07  08  09  10  11  12  13  14  15  16  17  18  19  20  21  22  23  24  25  26  27  28  29  30  
   31  32  33  34  35  36  37  38  39  40  41  42  43  
[Printable]
206
FTUS41 KCLE 241700
TAFYNG
TAF
KYNG 241720Z 2418/2518 VRB03KT P6SM SCT150
     FM242100 06006KT P6SM SCT120 BKN250
     FM250000 09006KT P6SM BKN120
     FM250900 10010KT P6SM SCT045 BKN080
     FM251200 12014KT P6SM -RA SCT035 OVC080
      TEMPO 2512/2514 5SM -RA BR OVC035
     FM251500 16014G20KT 5SM -RA BR OVC025=


U.S. Dept. of Commerce
NOAA National Weather Service
1325 East West Highway
Silver Spring, MD 20910
E-mail: w-nws.webmaster@noaa.gov
Page last modified: May 16, 2007
NATIONAL WEATHER SERVICE: for Safety, for Work, for Fun - FOR LIFE